Regional Weather Roundup
Issued by NWS

Home | Current Version | Previous Version | Graphics & Text | Print | Product List | Glossary Off
Versions: 1 2 3 4 5 6 7 8 9 10 11 12 13 14 15 16 17 18 19 20 21 22 23 24 25 26 27 28 29 30 31 32 33 34 35 36 37 38 39 40 41 42 43 44 45 46 47 48 49 50

000
ASUS43 KIND 231309
RWRIN

WEATHER ROUNDUP FOR INDIANA
NATIONAL WEATHER SERVICE INDIANAPOLIS IN
900 AM EDT SAT JUL 23 2016

NOTE: "FAIR" INDICATES FEW OR NO CLOUDS BELOW 12,000 FEET WITH NO
SIGNIFICANT WEATHER AND/OR OBSTRUCTIONS TO VISIBILITY.

* - STATION DOES NOT REPORT WEATHER SUCH AS PRECIPITATION OR FOG.

+ - STATION NOT QUALITY CONTROLLED BY THE NATIONAL WEATHER SERVICE.
    USE DATA WITH CAUTION...ESPECIALLY DEWPOINT AND RELATIVE
    HUMIDITY OBSERVATIONS.

INZ001>003-010>013-019-020-231400-
NORTHWEST INDIANA

CITY           SKY/WX    TMP DP  RH WIND       PRES   REMARKS
GARY /AIRPORT/ PTSUNNY   82  82 100 CALM      30.01S HX  97
KNOX *+        SUNNY     77  72  83 CALM      30.01R
LA PORTE +     SUNNY    N/A N/A N/A CALM      30.01S
MICHIGAN CITY+ MOSUNNY   79  79 100 CALM      30.01S
MONTICELLO +   SUNNY     77  71  82 CALM      30.02R
RENSSELAER +   CLOUDY    77  75  94 CALM      30.02S
VALPARAISO     SUNNY     81  75  82 W5        30.01S

$$

LMZ046-743>745-231400-
SOUTHERN LAKE MICHIGAN

STATION/POSITION TIME  TEMP    WIND        PRES    WAVE
                       AIR SEA DIR/SP/G            HT
                 (UTC) (F)     (DEG/KT/KT) (MB)    (FT)
BURNS HARBOR     1200   77     230/  4/  6 1016.3R
MICHIGAN CITY    1200   77     210/  5/  5   N/A
5NW MICH CITY    1200   76 74  250/  4/  4   N/A     0

$$

INZ004-005-014>016-021>024-231400-
NORTH CENTRAL INDIANA

CITY           SKY/WX    TMP DP  RH WIND       PRES   REMARKS
ELKHART        SUNNY     77  77 100 CALM      30.02S
GOSHEN         MOSUNNY   77  72  84 CALM      30.02R HAZE
LOGANSPORT +   SUNNY     73  73 100 CALM      30.03S
PERU/GRISSOM   SUNNY     78  76  94 W5        30.02R
ROCHESTER +    MOSUNNY   81  77  89 W5        30.03R
SOUTH BEND     MOSUNNY   77  75  93 CALM      30.01S
WARSAW +       SUNNY     77  73  88 CALM      30.02S

$$

INZ006>009-017-018-025>027-231400-
NORTHEAST INDIANA

CITY           SKY/WX    TMP DP  RH WIND       PRES   REMARKS
ANGOLA *+        N/A     75  70  83 CALM      30.02R
AUBURN +       PTSUNNY   75  72  88 CALM      30.03R FOG
FORT WAYNE     MOSUNNY   77  73  87 SW3       30.03R
HUNTINGTON +   SUNNY    N/A N/A N/A CALM      30.02R

$$

INZ028-029-035-036-043>045-051>053-231400-
WEST CENTRAL INDIANA

CITY           SKY/WX    TMP DP  RH WIND       PRES   REMARKS
CRAWFORDSVL +  SUNNY     75  75 100 CALM      30.03R
GREENCASTLE +  SUNNY     75  75 100 CALM      30.04R
LAFAYETTE      MOSUNNY   77  75  93 SW3       30.02R
TERRE HAUTE    SUNNY     78  73  84 CALM      30.02R

$$

INZ030>032-037>040-046>048-054>057-064-065-231400-
CENTRAL INDIANA

CITY           SKY/WX    TMP DP  RH WIND       PRES   REMARKS
ANDERSON       PTSUNNY   75  75 100 CALM      30.04
COLUMBUS       FOG       73  73 100 CALM      30.03R VSB 1/4
FISHERS *+     SUNNY     77  75  94 CALM      30.04R
FRANKFORT +    PTSUNNY  N/A N/A N/A CALM      30.05R
INDIANAPOLIS   MOSUNNY   80  73  79 CALM      30.03R
-EAGLE CREEK   SUNNY     81  73  76 CALM      30.03R
KOKOMO *+      SUNNY     81  72  74 SW6       30.03R
MARION +       SUNNY     76  73  92 CALM      30.04R
MT COMFORT *+  SUNNY     79  73  83 CALM      30.04R
SHELBYVILLE    SUNNY     79  73  82 CALM      30.02S
ZIONSVILLE +   SUNNY     76  73  90 CALM      30.05R

$$

INZ033-034-041-042-049-050-058-059-231400-
EAST CENTRAL INDIANA

CITY           SKY/WX    TMP DP  RH WIND       PRES   REMARKS
MUNCIE         MOSUNNY   80  73  79 CALM      30.04R

$$

INZ060-061-067>069-081>083-085>088-231400-
SOUTHWEST INDIANA

CITY           SKY/WX    TMP DP  RH WIND       PRES   REMARKS
EVANSVILLE     SUNNY     77  73  87 CALM      30.02R
HUNTINGBURG *+ SUNNY     75  72  88 SE7       30.02S
WASHINGTON +   CLOUDY    74  74 100 MISG      30.01S FOG

$$

INZ062-063-066-070>080-084-089>092-231400-
SOUTH CENTRAL AND SOUTHEAST INDIANA

CITY           SKY/WX    TMP DP  RH WIND       PRES   REMARKS
BLOOMINGTON    FOG       75  73  93 SE6       30.03S VSB 1/4
MADISON *+     MOSUNNY   73  73 100 CALM      30.06S
NORTH VERNON + CLOUDY   N/A N/A N/A CALM      30.05R FOG
SEYMOUR +      CLOUDY    77  77 100 CALM      30.03  FOG

$$





USA.gov is the U.S. government's official web portal to all federal, state and local government web resources and services.